Overview Statistics Trail Chart Weather Telemetry Raw packets
 

This is the latest recevied weather packets stored in our database for station/object YM2KA-13. If no packets are shown the sender has not sent any weather packets the latest 10 day(s).

<< 36 37 38 39 40 41 42 >>
Time Temp. Humidity Pressure Rain* Wind** Luminosity Snow
1788366191 27.78° C 22% 1008.7 hPa 0 mm - - -
1788366081 27.78° C 22% 1008.7 hPa 0 mm - - -
1788365481 27.78° C 23% 1008.7 hPa 0 mm - - -
1788365298 28.33° C 23% 1008.6 hPa 0 mm - - -
1788364882 28.33° C 25% 1008.6 hPa 0 mm - - -
1788364395 28.33° C 28% 1008.6 hPa 0 mm - - -
1788364283 28.89° C 29% 1008.6 hPa 0 mm - - -
1788363673 29.44° C 29% 1008.7 hPa 0 mm - - -
1788363490 29.44° C 29% 1008.6 hPa 0 mm - - -
1788363074 29.44° C 29% 1008.7 hPa 0 mm - - -
1788362597 28.89° C 30% 1008.7 hPa 0 mm - - -
1788362475 29.44° C 30% 1008.7 hPa 0 mm - - -
1788361876 30° C 26% 1008.7 hPa 0 mm - - -
1788361693 30° C 23% 1008.8 hPa 0 mm - - -
1788361276 30° C 23% 1008.8 hPa 0 mm - - -
1788360789 30° C 24% 1008.8 hPa 0 mm - - -
1788360677 30° C 23% 1008.8 hPa 0 mm - - -
1788360079 30° C 23% 1008.9 hPa 0 mm - - -
1788359896 30° C 24% 1008.9 hPa 0 mm - - -
1788359479 30° C 23% 1008.9 hPa 0 mm - - -
1788358992 30° C 23% 1008.9 hPa 0 mm - - -
1788358880 30° C 23% 1008.9 hPa 0 mm - - -
1788358282 30° C 24% 1009 hPa 0 mm - - -
1788358089 30° C 23% 1009 hPa 0 mm - - -
1788357683 30° C 23% 1009.1 hPa 0 mm - - -

* Rain latest hour (hover to see other rain measurements)
** Current wind speed in m/s (hover to see current wind gust speed)